776  
NZUS59 KLOT 201708  
HRRLOT  
 
CHICAGO AREA WEATHER ROUNDUP  
NATIONAL WEATHER SERVICE CHICAGO/ROMEOVILLE IL  
1200 PM CDT SUN MAY 20 2018  
 
NOTE: "FAIR" INDICATES FEW OR NO CLOUDS BELOW 12,000 FEET WITH NO  
SIGNIFICANT WEATHER AND/OR OBSTRUCTIONS TO VISIBILITY.  
 
* THESE STATIONS ARE NOT UNDER NWS QUALITY CONTROL. THEY ALSO MAY NOT  
REPORT WEATHER SUCH AS PRECIPITATION OR FOG.  
 
ILZ005-006-012>014-019>023-201800-  
NORTHEAST ILLINOIS  
 
CITY SKY/WX TMP DP RH WIND PRES REMARKS  
OHARE HVY RAIN 45 42 89 E12 30.20F FOG  
MIDWAY CLOUDY 47 44 90 N12 30.23S  
AURORA CLOUDY 51 46 83 E14 30.17F  
LANSING* CLOUDY 44 44 99 N8G18 30.22R  
JOLIET* CLOUDY 49 45 84 NE15G24 30.20R  
WAUKEGAN LGT RAIN 43 42 97 NE10G21 30.21F  
DUPAGE AIRPORT LGT RAIN 48 47 96 NE9 30.17F  
WHEELING HVY RAIN 45 44 97 NE7 30.23F FOG  
KANKAKEE* CLOUDY 55 49 81 NE18G24 30.16F  
MORRIS* CLOUDY 51 44 77 NE9G18 30.18S  
LEWIS AIRPORT* CLOUDY 48 44 85 NE17 30.21S  
NORTHERLY ISL N/A 44 41 89 MISG N/A  

 
 
WIZ051-052-058>065-066-070>072-201800-  
SOUTHEAST WISCONSIN  
 
CITY SKY/WX TMP DP RH WIND PRES REMARKS  
MILWAUKEE LGT RAIN 43 41 93 N16G24 30.23F  
KENOSHA* LGT RAIN 45 41 86 NE12G22 30.23F  
RACINE* LGT RAIN 43 41 93 NE20G25 30.24F FOG  
BURLINGTON CLOUDY 46 42 89 NE9 30.24R  
WAUKESHA PTSUNNY 46 43 87 NE8 30.24F  
WEST BEND PTSUNNY 48 43 81 E10 30.24S  

 
 
INZ001>003-010>013-019-020-201800-  
NORTHWEST INDIANA  
 
CITY SKY/WX TMP DP RH WIND PRES REMARKS  
GARY* CLOUDY 45 45 100 N10 30.23S  
MICHIGAN CITY* NOT AVBL  
RENSSELAER* NOT AVBL  
VALPARAISO CLOUDY 50 46 86 NW10 30.20R  

 
 
LMZ740>746-201800-  
SOUTHERN LAKE MICHIGAN  
 
STATION/POSITION TIME SKY/WX TEMP WIND PRES VSBY  
AIR DIR/SP/G  
(UTC) (F) (DEG/KT/KT) (MB) (MI)  
HARRISON CRIB 1640 43 360/ 18/ 20 N/A  
BURNHAM HARBOR 1700 44 310/ 9/ 18 N/A  
CALUMET HARBOR 1642 44 340/ 14/ 20 1023.1R  
BURNS HARBOR 1640 44 350/ 14/ 17 1023.7R  
MICHIGAN CITY NOT AVBL  

 
 
ABBREVIATIONS USED IN REMARKS  
TC - TEMPERATURE IN CELSIUS  
WCI - WIND CHILL INDEX  
HX - HEAT INDEX  
VSB - VISIBILITY  

 
 
 
CLICK HERE TO GO TO PREVIOUS BULLETINS.

The Nexlab IL Page
The Nexlab IN Page Main Text Page